K2AS-13 Weather Reports


Display with metric or nautical units.
time (UTC)temp
F
wind
direction
speed
MPH
gust
MPH
rain 1hr
in
rain 24hr
in
rain mn
in
humidity
%
barometer
mb
20260504050016 54 0.0 0.0 0.00 0.01 0.00 57 1006.8
20260504045016 55 203 1.0 4.0 0.00 0.01 0.00 54 1006.9
20260504044016 56 0.0 1.0 0.00 0.01 0.00 52 1006.9
20260504043016 57 225 3.0 12.0 0.00 0.01 0.00 52 1006.8
20260504042016 56 225 3.0 8.0 0.00 0.01 0.00 53 1006.8
20260504041036 56 0.0 0.0 0.00 0.01 0.00 53 1006.8
20260504040036 56 0.0 1.0 0.00 0.01 0.01 51 1006.9
20260504035017 56 248 4.0 11.0 0.00 0.01 0.01 52 1006.7
20260504034017 56 225 4.0 8.0 0.00 0.01 0.01 54 1006.8
20260504033017 55 0.0 1.0 0.00 0.01 0.01 55 1006.8
20260504032017 56 0.0 1.0 0.00 0.01 0.01 56 1006.9
20260504031017 55 0.0 1.0 0.00 0.01 0.01 57 1006.9
20260504030017 55 225 1.0 5.0 0.00 0.01 0.01 57 1007.0
20260504025017 55 0.0 0.0 0.00 0.01 0.01 60 1007.1
20260504024017 55 225 3.0 8.0 0.00 0.01 0.01 60 1007.2
20260504023017 54 248 2.0 10.0 0.00 0.01 0.01 65 1007.2
20260504022017 52 0.0 0.0 0.00 0.01 0.01 73 1007.3
20260504021017 52 0.0 0.0 0.00 0.01 0.01 77 1007.3
20260504020017 51 0.0 0.0 0.00 0.01 0.01 78 1007.5
20260504015037 51 0.0 0.0 0.00 0.01 0.01 80 1007.4
20260504014017 51 0.0 4.0 0.00 0.01 0.01 81 1007.4
20260504013017 50 0.0 0.0 0.00 0.01 0.01 84 1007.4
20260504012015 50 0.0 6.0 0.01 0.01 0.01 85 1007.7
20260504011017 50 0.0 0.0 0.01 0.01 0.01 86 1007.9
20260504010017 50 0.0 3.0 0.01 0.01 0.01 84 1007.9
20260504005017 50 0.0 2.0 0.01 0.01 0.01 84 1007.9
20260504004017 50 225 1.0 4.0 0.01 0.01 0.01 83 1008.0
20260504003017 51 270 4.0 10.0 0.01 0.01 0.01 79 1008.3
20260504002057 52 270 4.0 10.0 0.00 0.00 0.00 76 1008.2
20260504001017 52 270 5.0 9.0 0.00 0.00 0.00 73 1008.0
20260504000017 53 248 4.0 10.0 0.00 0.00 0.00 72 1007.8
20260503235017 53 248 6.0 13.0 0.00 0.00 0.00 69 1008.0
20260503234017 54 248 9.0 22.0 0.00 0.00 0.00 63 1007.9
20260503233037 55 248 6.0 14.0 0.00 0.00 0.00 57 1007.7
20260503232017 56 248 7.0 16.0 0.00 0.00 0.00 53 1007.6
20260503231017 56 225 6.0 15.0 0.00 0.00 0.00 52 1007.3
20260503230017 57 248 7.0 15.0 0.00 0.00 0.00 50 1007.2
20260503225017 56 248 1.0 9.0 0.00 0.00 0.00 51 1007.1
20260503224017 53 0.0 0.0 0.00 0.00 0.00 58 1007.0
20260503223017 51 0.0 0.0 0.00 0.00 0.00 66 1007.0
20260503222017 51 0.0 0.0 0.00 0.00 0.00 65 1007.0
20260503221017 49 0.0 0.0 0.00 0.00 0.00 67 1006.9
20260503220017 48 0.0 0.0 0.00 0.00 0.00 71 1007.6
20260503215017 48 0.0 0.0 0.00 0.00 0.00 69 1008.0
20260503214017 49 0.0 0.0 0.00 0.00 0.00 71 1008.0
20260503213017 50 0.0 0.0 0.00 0.00 0.00 69 1007.8
20260503212017 50 0.0 0.0 0.00 0.00 0.00 67 1007.3
20260503211017 50 0.0 0.0 0.00 0.00 0.00 65 1007.3
20260503210037 50 0.0 0.0 0.00 0.00 0.00 67 1007.4
20260503205017 50 0.0 0.0 0.00 0.00 0.00 65 1007.6
20260503204017 51 0.0 0.0 0.00 0.00 0.00 60 1007.6
20260503203017 50 0.0 0.0 0.00 0.00 0.00 63 1007.6
20260503202017 48 0.0 1.0 0.00 0.00 0.00 67 1007.8
20260503201017 49 0.0 1.0 0.00 0.00 0.00 64 1008.0
20260503200017 50 0.0 1.0 0.00 0.00 0.00 62 1008.1
20260503195017 51 23 2.0 5.0 0.00 0.00 0.00 60 1008.4
20260503194017 51 23 2.0 6.0 0.00 0.00 0.00 61 1008.6
20260503193017 50 23 3.0 6.0 0.00 0.00 0.00 65 1008.9
20260503192017 50 23 4.0 8.0 0.00 0.00 0.00 62 1009.0
20260503191017 51 0 1.0 4.0 0.00 0.00 0.00 62 1009.2
20260503190037 50 23 2.0 4.0 0.00 0.00 0.00 59 1009.4
20260503185017 51 0.0 3.0 0.00 0.00 0.00 60 1009.6
20260503184017 51 0.0 2.0 0.00 0.00 0.00 61 1009.8
20260503183037 48 0.0 0.0 0.00 0.00 0.00 60 1009.8
20260503182017 48 0.0 1.0 0.00 0.00 0.00 60 1009.9
20260503181017 49 0.0 0.0 0.00 0.00 0.00 59 1010.0
20260503180017 49 0.0 0.0 0.00 0.00 0.00 60 1010.1
20260503175016 49 0.0 1.0 0.00 0.00 0.00 60 1010.2
20260503174017 48 0.0 0.0 0.00 0.00 0.00 60 1010.3
20260503173037 47 0.0 1.0 0.00 0.00 0.00 61 1010.3
20260503172037 49 0.0 1.0 0.00 0.00 0.00 61 1010.4
20260503171017 48 0.0 1.0 0.00 0.00 0.00 57 1010.4
20260503131016 47 270 4.0 8.0 0.00 0.00 0.00 47 1012.6
20260503081016 38 0.0 0.0 0.00 0.00 0.00 82 1012.0
20260503072016 40 0.0 0.0 0.00 0.00 0.00 77 1012.0
20260503071016 40 0.0 0.0 0.00 0.00 0.00 77 1012.0
20260503055036 42 0.0 0.0 0.00 0.00 0.00 71 1012.2
20260503054036 42 0.0 0.0 0.00 0.00 0.00 70 1012.3
20260503053016 42 0.0 0.0 0.00 0.00 0.00 72 1012.3
20260503052036 42 0.0 0.0 0.00 0.00 0.00 72 1012.4
20260503051016 42 0.0 0.0 0.00 0.00 0.00 72 1012.5